Weather History for Zielona Gora, Poland

Change the Weather History Date:

Tuesday, February 5, 2013

  Actual Average (EPPO) Record (EPPO)
Temperature  
Mean Temperature 37 °F -  
Max Temperature 43 °F 38 °F 59 °F (2004)
Min Temperature 31 °F 27 °F 3 °F (2012)
Degree Days  
Heating Degree Days 28    
Moisture  
Dew Point 34 °F    
Average Humidity 81    
Maximum Humidity 100    
Minimum Humidity 57    
Precipitation  
Precipitation 0.00 in 0.04 in - ()
Sea Level Pressure  
Sea Level Pressure 29.46 in    
Wind  
Wind Speed 12 mph ()    
Max Wind Speed 25 mph    
Max Gust Speed 45 mph    
Visibility 7.3 miles    
Events Rain    
Averages and records for this station are not official NWS values.
T = Trace of Precipitation, MM = Missing Value Source: Averaged Metar Reports

Daily Weather History Graph

Daily Weather History Graph

Search for Another Location

Airport:

Trip Planner

Search our weather history database for the weather conditions in past years. The results will help you decide how hot, cold, wet, or windy it might be!

Date:

Astronomy

Feb. 05, 2013 Rise Set
Actual Time 7:30 AM CET 4:51 PM CET
Civil Twilight 6:54 AM CET 5:28 PM CET
Nautical Twilight 6:13 AM CET 6:08 PM CET
Astronomical Twilight 5:34 AM CET 6:47 PM CET
Moon 3:06 AM CET (2/5) 11:38 AM CET (2/5)
Length of Visible Light 10h 33m
Length of Day
9h 21m
Waning Crescent, 29% of the Moon is Illuminated
Feb 5
Waning Crescent
Feb 10
New
Feb 17
First Quarter
Feb 25
Full
Mar 4
Last Quarter

Hourly Weather History & Observations

Time (CET) Temp. Windchill Dew Point Humidity Pressure Visibility Wind Dir Wind Speed Gust Speed Precip Events Conditions
1:00 AM 37 °F - 33 °F 82% 29.68 in 25 mi WSW 11.2 mph - -   Mostly Cloudy
4:00 AM 36 °F - 33 °F 87% 29.64 in 19 mi SW 8.9 mph - -   Mostly Cloudy
5:30 AM 37.4 °F 29.3 °F 35.6 °F 93% 29.56 in 6.2 mi WSW 12.7 mph - N/A   Scattered Clouds
6:00 AM 39.2 °F 32.0 °F 35.6 °F 87% 29.56 in - SW 11.5 mph - N/A   Clear
6:30 AM 37.4 °F 28.9 °F 33.8 °F 87% 29.56 in - SW 13.8 mph - N/A   Clear
7:00 AM 36 °F - 34 °F 87% 29.59 in 9 mi SW 8.9 mph - -   Mostly Cloudy
7:00 AM 37.4 °F 28.5 °F 35.6 °F 93% 29.56 in 6.2 mi SW 15.0 mph - N/A   Scattered Clouds
7:30 AM 37.4 °F 28.9 °F 35.6 °F 93% 29.53 in - SW 13.8 mph - N/A   Clear
8:00 AM 37.4 °F 29.3 °F 35.6 °F 93% 29.53 in - SSW 12.7 mph - N/A   Clear
8:30 AM 37.4 °F 28.9 °F 33.8 °F 87% 29.53 in - SSW 13.8 mph - N/A   Clear
9:00 AM 39.2 °F 30.8 °F 35.6 °F 87% 29.50 in - SSW 15.0 mph - N/A   Clear
9:30 AM 41.0 °F 33.5 °F 35.6 °F 81% 29.50 in - SW 13.8 mph - N/A   Clear
10:00 AM 39 °F - 34 °F 74%  in 9 mi SSW 8.9 mph - -   Partly Cloudy
10:00 AM 41.0 °F 33.5 °F 35.6 °F 81% 29.50 in - SSW 13.8 mph - N/A   Clear
10:30 AM 42.8 °F 35.4 °F 35.6 °F 76% 29.50 in 6.2 mi SW 15.0 mph - N/A   Partly Cloudy
11:00 AM 42.8 °F 34.8 °F 35.6 °F 76% 29.50 in 6.2 mi SSW 17.3 mph - N/A   Scattered Clouds
11:30 AM 44.6 °F 37.4 °F 35.6 °F 71% 29.47 in 6.2 mi SW 16.1 mph - N/A   Mostly Cloudy
12:00 PM 44.6 °F 37.4 °F 35.6 °F 71% 29.47 in 6.2 mi SSW 16.1 mph - N/A   Mostly Cloudy
12:30 PM 46.4 °F 40.1 °F 35.6 °F 66% 29.44 in 6.2 mi SSW 15.0 mph - N/A   Mostly Cloudy
1:00 PM 44.6 °F 37.2 °F 35.6 °F 71% 29.44 in 6.2 mi SSW 17.3 mph - N/A   Mostly Cloudy
1:30 PM 46.4 °F 39.0 °F 32.0 °F 57% 29.42 in 6.2 mi SW 19.6 mph - N/A   Mostly Cloudy
2:00 PM 44.6 °F 38.8 °F 33.8 °F 66% 29.39 in 6.2 mi SSW 11.5 mph - N/A   Scattered Clouds
2:30 PM 44.6 °F 38.8 °F 33.8 °F 66% 29.39 in - SSW 11.5 mph - N/A   Clear
3:00 PM 44.6 °F 38.4 °F 33.8 °F 66% 29.36 in 6.2 mi South 12.7 mph - N/A Rain Light Rain Showers
3:30 PM 44.6 °F 37.2 °F 35.6 °F 71% 29.36 in 6.2 mi SSW 17.3 mph - N/A   Scattered Clouds
4:00 PM 42 °F - 32 °F 59% 29.36 in 19 mi South 11.2 mph - - Rain Light Rain Showers
4:00 PM 44.6 °F 38.4 °F 33.8 °F 66% 29.33 in 6.2 mi South 12.7 mph - N/A   Partly Cloudy
4:30 PM 44.6 °F 37.4 °F 33.8 °F 66% 29.33 in 6.2 mi South 16.1 mph - N/A   Partly Cloudy
5:00 PM 41.0 °F 30.7 °F 33.8 °F 76% 29.36 in 0.8 mi SW 25.3 mph 44.9 mph N/A Rain Heavy Rain Showers
5:30 PM 33.8 °F 25.3 °F 33.8 °F 100% 29.36 in 6.2 mi WSW 11.5 mph - N/A   Mostly Cloudy
6:00 PM 35.6 °F 27.5 °F 33.8 °F 93% 29.36 in 6.2 mi WSW 11.5 mph - N/A   Partly Cloudy
6:30 PM 35.6 °F 25.9 °F 33.8 °F 93% 29.39 in - WSW 16.1 mph - N/A   Clear
7:00 PM 34 °F - 29 °F 77% 29.44 in 31 mi WSW 13.4 mph - -   Partly Cloudy
7:00 PM 35.6 °F 25.5 °F 33.8 °F 93% 29.39 in 6.2 mi WSW 17.3 mph - N/A   Partly Cloudy
7:30 PM 35.6 °F 27.1 °F 32.0 °F 87% 29.42 in 6.2 mi WSW 12.7 mph - N/A   Scattered Clouds
8:00 PM 35.6 °F 26.6 °F 32.0 °F 87% 29.42 in 6.2 mi WSW 13.8 mph - N/A   Partly Cloudy
8:30 PM 33.8 °F 24.3 °F 30.2 °F 87% 29.42 in - SW 13.8 mph - N/A   Clear
9:00 PM 33.8 °F 26.4 °F 32.0 °F 93% 29.42 in - WSW 9.2 mph - N/A   Clear
9:30 PM 33.8 °F 24.3 °F 30.2 °F 87% 29.42 in - WSW 13.8 mph - N/A   Clear
10:00 PM 31 °F - 29 °F 90% 29.47 in 31 mi SW 6.7 mph - -   Scattered Clouds
10:00 PM 33.8 °F 25.3 °F 30.2 °F 87% 29.44 in - SW 11.5 mph - N/A   Clear